User: anonymous
Location: Blue Mountain Vista Observatory
(40.6992°N, 75.9422°W)
Time: 01:30:38
(UTC-04:00)
Language:

IDEFIX/ARIANE 42P - Orbit

View from above orbital plane
View from above orbital plane
View from above satellite
View from above satellite

Ground track
Ground track

The orbit data is extracted from the following two-line orbital elements,

1 27422U 02021B   14259.76299291  .00000135  00000-0  69517-4 0  5849
2 27422 098.2919 297.8586 0011496 337.4437 156.4071 14.29049488643213
Epoch (UTC): 16 September 2014 18:18:42
Eccentricity: 0.0011496
inclination: 98.2919°
perigee height: 786 km
apogee height: 803 km
right ascension of ascending node: 297.8586°
argument of perigee: 337.4437°
revolutions per day: 14.29049488
mean anomaly at epoch: 156.4071°
orbit number at epoch: 64321

The dashed part of the orbit path shows where the satellite is in the earth's shadow,  

DLR